Location: *
(57.8420°S, 159.8600°W)
Time: 02:24:14
(UTC+00:00)

Cosmos 1782 - Pass Details

Date: 18 May 2021
Orbit: 537 x 550 km, 82.5° (Epoch: 23 June)

Event Time Altitude Azimuth Distance (km) Brightness Sun altitude
Rises 04:49:01 0° 192° (SSW) 2,774 6.5 -18.2°
Reaches altitude 10° 04:51:14 10° 187° (S) 1,873 5.5 -18.5°
Maximum altitude 04:55:19 56° 107° (ESE) 675 2.9 -19.1°
Enters shadow 04:56:43 36° 48° (NE) 903 3.5 -19.2°
